| time (UTC) | temp C | wind direction | speed KPH | gust KPH | rain 1hr cm | rain 24hr cm | rain mn cm | humidity % | barometer mb |
| 20260502182704 | 23 | 359 | 1.6 | 4.8 | 0.00 | 6.60 | 0.00 | 54 | 1017.6 |
| 20260502182204 | 23 | 339 | 1.6 | 4.8 | 0.00 | 6.60 | 0.00 | 53 | 1017.6 |
| 20260502181704 | 23 | 275 | 3.2 | 9.7 | 0.00 | 7.04 | 0.00 | 53 | 1017.7 |
| 20260502181203 | 23 | 19 | 1.6 | 8.0 | 0.00 | 7.11 | 0.00 | 53 | 1017.7 |
| 20260502180705 | 23 | 203 | 1.6 | 9.7 | 0.00 | 7.11 | 0.00 | 53 | 1017.8 |
| 20260502180204 | 23 | 114 | 1.6 | 4.8 | 0.00 | 7.19 | 0.00 | 53 | 1018.0 |
| 20260502170204 | 21 | 60 | 1.6 | 8.0 | 0.00 | 8.20 | 0.00 | 59 | 1018.4 |
| 20260502164203 | 21 | 129 | 1.6 | 8.0 | 0.00 | 8.20 | 0.00 | 59 | 1018.2 |
| 20260502163704 | 21 | 216 | 1.6 | 8.0 | 0.00 | 8.20 | 0.00 | 62 | 1018.2 |
| 20260502162704 | 21 | 91 | 1.6 | 4.8 | 0.00 | 8.38 | 0.00 | 64 | 1018.2 |
| 20260502162204 | 21 | 263 | 1.6 | 4.8 | 0.00 | 9.22 | 0.00 | 64 | 1018.2 |
| 20260502161704 | 20 | 243 | 0.0 | 4.8 | 0.00 | 9.22 | 0.00 | 65 | 1018.2 |
| 20260502161204 | 20 | 301 | 1.6 | 4.8 | 0.00 | 9.22 | 0.00 | 64 | 1018.3 |
| 20260502160704 | 20 | 267 | 1.6 | 9.7 | 0.00 | 9.22 | 0.00 | 65 | 1018.2 |
| 20260502160204 | 20 | 40 | 1.6 | 9.7 | 0.00 | 9.22 | 0.00 | 66 | 1018.2 |
| 20260502152204 | 18 | 95 | 1.6 | 3.2 | 0.00 | 9.50 | 0.00 | 71 | 1018.1 |
| 20260502151704 | 18 | 98 | 1.6 | 4.8 | 0.00 | 9.50 | 0.00 | 73 | 1018.2 |
| 20260502151204 | 18 | 83 | 1.6 | 8.0 | 0.00 | 9.50 | 0.00 | 73 | 1018.2 |
| 20260502150704 | 18 | 111 | 1.6 | 4.8 | 0.00 | 9.50 | 0.00 | 75 | 1018.2 |
| 20260502150204 | 18 | 87 | 1.6 | 4.8 | 0.00 | 9.50 | 0.00 | 76 | 1018.2 |
| 20260502130705 | 12 | 126 | 3.2 | 4.8 | 0.00 | 9.70 | 0.00 | 97 | 1016.9 |
| 20260502130204 | 12 | 71 | 1.6 | 3.2 | 0.00 | 9.70 | 0.00 | 98 | 1016.9 |
| 20260502123704 | 11 | 101 | 1.6 | 3.2 | 0.00 | 9.70 | 0.00 | 98 | 1016.6 |
| 20260502123203 | 11 | 130 | 1.6 | 3.2 | 0.00 | 9.73 | 0.00 | 98 | 1016.6 |
| 20260502122704 | 11 | 91 | 0.0 | 1.6 | 0.00 | 9.75 | 0.00 | 98 | 1016.5 |
| 20260502122204 | 11 | 123 | 1.6 | 1.6 | 0.00 | 9.75 | 0.00 | 98 | 1016.3 |
| 20260502121705 | 11 | 97 | 1.6 | 4.8 | 0.00 | 9.75 | 0.00 | 98 | 1016.2 |
| 20260502121204 | 11 | 144 | 1.6 | 3.2 | 0.00 | 9.75 | 0.00 | 98 | 1016.3 |
| 20260502120704 | 11 | 123 | 1.6 | 1.6 | 0.00 | 9.75 | 0.00 | 98 | 1016.3 |
| 20260502120204 | 11 | 110 | 0.0 | 1.6 | 0.00 | 9.75 | 0.00 | 98 | 1016.2 |
| 20260502115703 | 11 | 107 | 1.6 | 1.6 | 0.00 | 9.75 | 0.00 | 98 | 1016.2 |
| 20260502115204 | 11 | 118 | 1.6 | 1.6 | 0.00 | 9.75 | 0.00 | 98 | 1016.1 |
| 20260502114704 | 11 | 115 | 1.6 | 3.2 | 0.00 | 9.75 | 0.00 | 98 | 1016.1 |
| 20260502114204 | 11 | 79 | 0.0 | 1.6 | 0.00 | 9.75 | 0.00 | 98 | 1016.2 |
| 20260502112705 | 11 | 54 | 1.6 | 3.2 | 0.00 | 9.75 | 0.00 | 98 | 1016.0 |
| 20260502112204 | 11 | 157 | 1.6 | 1.6 | 0.00 | 9.75 | 0.00 | 97 | 1015.9 |
| 20260502111204 | 11 | 84 | 0.0 | 1.6 | 0.00 | 9.75 | 0.00 | 97 | 1015.8 |
| 20260502110704 | 11 | 131 | 1.6 | 1.6 | 0.00 | 9.75 | 0.00 | 97 | 1015.7 |
| 20260502110204 | 11 | 89 | 1.6 | 1.6 | 0.00 | 9.75 | 0.00 | 97 | 1015.6 |
| 20260502105705 | 11 | 152 | 0.0 | 1.6 | 0.00 | 9.75 | 0.00 | 97 | 1015.5 |
| 20260502105204 | 11 | 98 | 0.0 | 1.6 | 0.00 | 9.75 | 0.00 | 97 | 1015.5 |
| 20260502104704 | 11 | 149 | 1.6 | 3.2 | 0.00 | 9.75 | 0.00 | 97 | 1015.4 |
| 20260502104204 | 11 | 144 | 0.0 | 1.6 | 0.00 | 9.75 | 0.00 | 97 | 1015.3 |
| 20260502103704 | 11 | 128 | 1.6 | 3.2 | 0.00 | 9.75 | 0.00 | 97 | 1015.2 |
| 20260502103203 | 11 | 124 | 1.6 | 3.2 | 0.00 | 9.75 | 0.00 | 97 | 1015.2 |
| 20260502102204 | 11 | 172 | 1.6 | 1.6 | 0.00 | 9.75 | 0.00 | 96 | 1015.1 |
| 20260502101704 | 11 | 137 | 1.6 | 3.2 | 0.00 | 9.91 | 0.00 | 96 | 1015.0 |
| 20260502101203 | 11 | 106 | 0.0 | 1.6 | 0.00 | 9.91 | 0.00 | 96 | 1014.9 |
| 20260502100704 | 12 | 107 | 0.0 | 1.6 | 0.00 | 9.91 | 0.00 | 96 | 1014.8 |
| 20260502100204 | 12 | 165 | 1.6 | 3.2 | 0.00 | 9.91 | 0.00 | 95 | 1014.6 |
| 20260502090704 | 12 | 79 | 1.6 | 3.2 | 0.00 | 10.46 | 0.00 | 93 | 1014.0 |
| 20260502090204 | 12 | 78 | 1.6 | 3.2 | 0.00 | 10.46 | 0.00 | 93 | 1013.8 |
| 20260502071204 | 12 | 88 | 1.6 | 3.2 | 0.00 | 10.90 | 0.00 | 99 | 1013.8 |
| 20260502070204 | 12 | 119 | 1.6 | 4.8 | 0.00 | 10.97 | 0.00 | 99 | 1013.8 |
| 20260502065704 | 12 | 112 | 1.6 | 3.2 | 0.00 | 10.97 | 0.00 | 99 | 1013.8 |
| 20260502064704 | 12 | 109 | 1.6 | 3.2 | 0.00 | 11.00 | 0.00 | 99 | 1013.7 |
| 20260502064204 | 12 | 95 | 1.6 | 3.2 | 0.00 | 11.00 | 0.00 | 99 | 1013.7 |
| 20260502063704 | 12 | 89 | 1.6 | 3.2 | 0.00 | 11.00 | 0.00 | 99 | 1013.6 |
| 20260502063204 | 12 | 112 | 1.6 | 3.2 | 0.00 | 11.00 | 0.00 | 99 | 1013.5 |
| 20260502062204 | 13 | 89 | 1.6 | 4.8 | 0.00 | 11.13 | 0.00 | 99 | 1013.6 |
| 20260502061706 | 13 | 33 | 4.8 | 4.8 | 0.00 | 11.13 | 0.00 | 99 | 1013.6 |
| 20260502061204 | 13 | 32 | 3.2 | 4.8 | 0.00 | 11.13 | 0.00 | 99 | 1013.5 |
| 20260502060704 | 13 | 26 | 3.2 | 4.8 | 0.00 | 11.13 | 0.00 | 99 | 1013.5 |
| 20260502060204 | 13 | 26 | 4.8 | 8.0 | 0.00 | 11.13 | 0.00 | 99 | 1013.3 |
| 20260502055704 | 13 | 36 | 3.2 | 4.8 | 0.00 | 11.13 | 0.00 | 99 | 1013.3 |
| 20260502055204 | 13 | 33 | 3.2 | 4.8 | 0.00 | 11.15 | 0.00 | 99 | 1013.4 |
| 20260502054703 | 13 | 36 | 3.2 | 4.8 | 0.00 | 11.15 | 0.00 | 99 | 1013.4 |
| 20260502053705 | 13 | 32 | 3.2 | 4.8 | 0.00 | 11.18 | 0.00 | 99 | 1013.4 |
| 20260502053204 | 13 | 36 | 4.8 | 8.0 | 0.00 | 11.18 | 0.00 | 99 | 1013.4 |
| 20260502052704 | 13 | 34 | 3.2 | 4.8 | 0.00 | 11.20 | 0.00 | 99 | 1013.4 |
| 20260502052204 | 13 | 39 | 3.2 | 4.8 | 0.00 | 11.25 | 0.00 | 99 | 1013.5 |
| 20260502051704 | 13 | 35 | 4.8 | 8.0 | 0.00 | 11.38 | 0.00 | 99 | 1013.4 |
| 20260502051204 | 13 | 29 | 4.8 | 4.8 | 0.00 | 11.38 | 0.00 | 99 | 1013.5 |
| 20260502050704 | 13 | 33 | 3.2 | 4.8 | 0.00 | 11.40 | 0.00 | 99 | 1013.4 |
| 20260502050204 | 13 | 39 | 3.2 | 4.8 | 0.00 | 11.40 | 0.00 | 100 | 1013.4 |
| 20260502045704 | 13 | 35 | 3.2 | 4.8 | 0.00 | 11.40 | 10.03 | 100 | 1013.4 |
| 20260502045204 | 13 | 31 | 4.8 | 4.8 | 0.00 | 11.40 | 10.03 | 100 | 1013.4 |
| 20260502044704 | 13 | 32 | 3.2 | 8.0 | 0.00 | 11.40 | 10.03 | 100 | 1013.5 |
| 20260502043704 | 13 | 30 | 3.2 | 4.8 | 0.05 | 11.40 | 10.03 | 100 | 1013.6 |
| 20260502043204 | 13 | 30 | 3.2 | 4.8 | 0.05 | 11.40 | 10.03 | 100 | 1013.5 |
| 20260502042704 | 13 | 34 | 4.8 | 4.8 | 0.05 | 11.40 | 10.03 | 100 | 1013.5 |
| 20260502042204 | 13 | 30 | 3.2 | 4.8 | 0.05 | 11.40 | 10.03 | 100 | 1013.4 |
| 20260502041704 | 13 | 36 | 4.8 | 4.8 | 0.05 | 11.40 | 10.03 | 100 | 1013.4 |
| 20260502040703 | 13 | 32 | 3.2 | 8.0 | 0.05 | 11.40 | 10.03 | 100 | 1013.4 |
| 20260502040204 | 13 | 32 | 3.2 | 4.8 | 0.05 | 11.40 | 10.03 | 100 | 1013.4 |
| 20260502035704 | 13 | 25 | 4.8 | 4.8 | 0.05 | 11.40 | 10.03 | 100 | 1013.4 |
| 20260502035204 | 13 | 34 | 4.8 | 4.8 | 0.05 | 11.40 | 10.03 | 100 | 1013.1 |
| 20260502034704 | 13 | 33 | 3.2 | 4.8 | 0.05 | 11.40 | 10.03 | 100 | 1013.1 |
| 20260502033704 | 13 | 44 | 4.8 | 4.8 | 0.00 | 11.35 | 9.98 | 100 | 1013.0 |
| 20260502033204 | 13 | 40 | 3.2 | 4.8 | 0.00 | 11.35 | 9.98 | 100 | 1013.1 |
| 20260502032704 | 13 | 48 | 4.8 | 4.8 | 0.00 | 11.35 | 9.98 | 100 | 1012.9 |
| 20260502032204 | 13 | 42 | 4.8 | 4.8 | 0.08 | 11.35 | 9.98 | 100 | 1012.5 |
| 20260502031204 | 13 | 44 | 3.2 | 4.8 | 0.08 | 11.35 | 9.98 | 100 | 1011.9 |
| 20260502030204 | 13 | 38 | 3.2 | 4.8 | 0.23 | 11.35 | 9.98 | 100 | 1011.8 |
| 20260502025704 | 13 | 42 | 3.2 | 4.8 | 0.23 | 11.35 | 9.98 | 100 | 1011.9 |
| 20260502025204 | 14 | 43 | 4.8 | 4.8 | 0.23 | 11.35 | 9.98 | 100 | 1012.0 |
| 20260502024703 | 14 | 37 | 3.2 | 4.8 | 0.23 | 11.35 | 9.98 | 100 | 1011.7 |
| 20260502024204 | 14 | 38 | 4.8 | 4.8 | 0.23 | 11.35 | 9.98 | 100 | 1011.6 |
| 20260502023704 | 14 | 33 | 3.2 | 4.8 | 0.23 | 11.35 | 9.98 | 100 | 1011.6 |
| 20260502023204 | 14 | 28 | 4.8 | 11.3 | 0.23 | 11.35 | 9.98 | 100 | 1011.6 |
| 20260502022704 | 14 | 27 | 4.8 | 12.9 | 0.23 | 11.35 | 9.98 | 100 | 1011.6 |
| 20260502021704 | 14 | 21 | 3.2 | 8.0 | 0.20 | 11.28 | 9.91 | 100 | 1011.9 |
| 20260502021204 | 14 | 33 | 3.2 | 12.9 | 0.23 | 11.28 | 9.91 | 100 | 1011.6 |
| 20260502020704 | 14 | 89 | 4.8 | 11.3 | 0.23 | 11.28 | 9.91 | 100 | 1011.5 |
| 20260502020204 | 14 | 54 | 4.8 | 11.3 | 0.08 | 11.13 | 9.75 | 100 | 1011.6 |
| 20260502015204 | 14 | 112 | 9.7 | 12.9 | 0.08 | 11.13 | 9.75 | 100 | 1011.6 |
| 20260502014704 | 15 | 108 | 8.0 | 12.9 | 0.08 | 11.13 | 9.75 | 100 | 1011.2 |
| 20260502013704 | 15 | 90 | 3.2 | 14.5 | 0.08 | 11.13 | 9.75 | 100 | 1011.0 |
| 20260502013206 | 15 | 86 | 3.2 | 8.0 | 0.25 | 11.13 | 9.75 | 100 | 1010.5 |
| 20260502012704 | 15 | 31 | 3.2 | 8.0 | 0.25 | 11.13 | 9.75 | 100 | 1010.5 |
| 20260502012204 | 15 | 43 | 4.8 | 8.0 | 0.20 | 11.07 | 9.70 | 100 | 1010.4 |
| 20260502011204 | 15 | 75 | 4.8 | 12.9 | 0.20 | 11.05 | 9.68 | 100 | 1010.7 |
| 20260502010704 | 15 | 82 | 6.4 | 8.0 | 0.18 | 11.05 | 9.68 | 100 | 1010.7 |
| 20260502010204 | 15 | 75 | 4.8 | 8.0 | 0.41 | 11.05 | 9.68 | 100 | 1010.7 |
| 20260502005704 | 15 | 92 | 4.8 | 8.0 | 0.41 | 11.05 | 9.68 | 100 | 1010.4 |
| 20260502005204 | 15 | 82 | 3.2 | 8.0 | 0.41 | 11.05 | 9.68 | 100 | 1009.9 |
| 20260502004704 | 15 | 85 | 3.2 | 8.0 | 0.41 | 11.05 | 9.68 | 100 | 1009.5 |
| 20260502004204 | 15 | 72 | 3.2 | 4.8 | 0.41 | 11.05 | 9.68 | 100 | 1009.3 |
| 20260502003704 | 15 | 82 | 4.8 | 8.0 | 0.41 | 11.05 | 9.68 | 100 | 1009.2 |
| 20260502003204 | 15 | 88 | 4.8 | 8.0 | 0.43 | 10.87 | 9.50 | 100 | 1009.4 |
| 20260502002704 | 15 | 86 | 3.2 | 4.8 | 0.43 | 10.87 | 9.50 | 100 | 1009.5 |
| 20260502002204 | 15 | 69 | 3.2 | 4.8 | 0.43 | 10.87 | 9.50 | 100 | 1009.5 |
| 20260502000704 | 15 | 91 | 3.2 | 8.0 | 0.43 | 10.87 | 9.50 | 100 | 1009.4 |
| 20260502000204 | 15 | 98 | 4.8 | 9.7 | 0.71 | 10.64 | 9.27 | 100 | 1009.5 |
| 20260501235703 | 15 | 90 | 4.8 | 9.7 | 0.71 | 10.64 | 9.27 | 99 | 1009.6 |
| 20260501235204 | 15 | 107 | 8.0 | 12.9 | 0.71 | 10.64 | 9.27 | 100 | 1009.4 |
| 20260501234704 | 15 | 103 | 6.4 | 9.7 | 0.71 | 10.64 | 9.27 | 100 | 1008.8 |
| 20260501234204 | 15 | 100 | 6.4 | 11.3 | 0.71 | 10.64 | 9.27 | 100 | 1008.4 |
| 20260501233703 | 15 | 89 | 8.0 | 9.7 | 0.71 | 10.64 | 9.27 | 100 | 1008.3 |
| 20260501232204 | 15 | 111 | 4.8 | 8.0 | 0.25 | 10.44 | 9.07 | 100 | 1009.4 |
| 20260501231204 | 16 | 97 | 4.8 | 4.8 | 0.25 | 10.44 | 9.07 | 100 | 1009.1 |
| 20260501230704 | 15 | 83 | 3.2 | 4.8 | 0.25 | 10.44 | 9.07 | 100 | 1008.7 |
| 20260501230204 | 16 | 86 | 4.8 | 8.0 | 0.20 | 9.93 | 8.56 | 100 | 1008.3 |
| 20260501225704 | 16 | 87 | 3.2 | 4.8 | 0.05 | 9.93 | 8.56 | 100 | 1008.5 |
| 20260501224203 | 16 | 105 | 3.2 | 4.8 | 0.76 | 9.93 | 8.56 | 100 | 1008.4 |
| 20260501223704 | 16 | 80 | 4.8 | 8.0 | 0.76 | 9.93 | 8.56 | 100 | 1008.4 |
| 20260501223205 | 16 | 50 | 4.8 | 8.0 | 0.76 | 9.93 | 8.56 | 100 | 1008.2 |
| 20260501222704 | 16 | 67 | 4.8 | 9.7 | 0.76 | 9.93 | 8.56 | 100 | 1008.3 |
| 20260501222205 | 16 | 73 | 4.8 | 8.0 | 0.99 | 9.93 | 8.81 | 100 | 1008.5 |
| 20260501221704 | 16 | 63 | 4.8 | 8.0 | 1.02 | 9.93 | 8.81 | 100 | 1008.6 |
| 20260501221204 | 16 | 66 | 4.8 | 8.0 | 0.84 | 9.93 | 8.81 | 100 | 1008.5 |
| 20260501220704 | 16 | 97 | 4.8 | 8.0 | 0.84 | 9.93 | 8.81 | 100 | 1008.3 |
| 20260501220204 | 16 | 112 | 4.8 | 4.8 | 0.64 | 9.70 | 8.59 | 100 | 1008.8 |
| 20260501215703 | 16 | 113 | 4.8 | 8.0 | 0.97 | 9.63 | 8.51 | 100 | 1009.1 |
| 20260501214704 | 16 | 107 | 4.8 | 9.7 | 0.25 | 8.92 | 7.80 | 100 | 1008.7 |
| 20260501214204 | 16 | 117 | 9.7 | 11.3 | 0.25 | 8.92 | 7.80 | 100 | 1008.8 |
| 20260501213204 | 16 | 108 | 8.0 | 11.3 | 0.91 | 8.92 | 7.80 | 100 | 1008.7 |
| 20260501212704 | 16 | 111 | 8.0 | 9.7 | 0.91 | 8.92 | 7.80 | 100 | 1008.8 |
| 20260501211703 | 16 | 100 | 4.8 | 4.8 | 0.89 | 8.89 | 7.80 | 100 | 1008.4 |
| 20260501211204 | 16 | 101 | 4.8 | 4.8 | 1.09 | 8.89 | 7.98 | 100 | 1008.3 |
| 20260501210704 | 16 | 111 | 4.8 | 8.0 | 1.09 | 8.89 | 7.98 | 100 | 1007.9 |
| 20260501210204 | 16 | 98 | 4.8 | 4.8 | 1.09 | 8.89 | 7.98 | 100 | 1007.4 |
| 20260501205704 | 16 | 123 | 4.8 | 4.8 | 0.81 | 8.46 | 7.54 | 100 | 1007.2 |
| 20260501204704 | 16 | 120 | 4.8 | 9.7 | 1.09 | 8.46 | 7.54 | 100 | 1007.3 |
| 20260501204204 | 16 | 98 | 4.8 | 8.0 | 1.09 | 8.46 | 7.54 | 100 | 1007.6 |
| 20260501202704 | 17 | 204 | 25.7 | 64.4 | 1.17 | 7.24 | 6.88 | 100 | 1008.0 |
| 20260501202204 | 16 | 159 | 32.2 | 82.1 | 1.17 | 7.24 | 6.88 | 100 | 1008.4 |
| 20260501201703 | 16 | 156 | 16.1 | 82.1 | 1.17 | 7.24 | 6.88 | 100 | 1007.6 |
| 20260501201204 | 16 | 175 | 8.0 | 78.9 | 1.22 | 7.24 | 6.88 | 100 | 1006.7 |
| 20260501200205 | 17 | 164 | 8.0 | 64.4 | 1.22 | 7.24 | 6.88 | 100 | 1006.8 |
| 20260501195704 | 17 | 176 | 4.8 | 11.3 | 1.07 | 7.09 | 6.73 | 100 | 1007.2 |
| 20260501195203 | 17 | 178 | 4.8 | 8.0 | 0.91 | 6.91 | 6.58 | 100 | 1007.1 |
| 20260501194704 | 17 | 172 | 4.8 | 9.7 | 1.70 | 6.81 | 6.45 | 100 | 1007.3 |
| 20260501194204 | 17 | 177 | 4.8 | 45.1 | 1.70 | 6.81 | 6.45 | 100 | 1007.1 |
| 20260501192704 | 17 | 137 | 4.8 | 8.0 | 1.24 | 6.07 | 5.71 | 100 | 1006.9 |
| 20260501192204 | 16 | 180 | 4.8 | 8.0 | 1.27 | 6.07 | 5.74 | 100 | 1007.2 |
| 20260501191704 | 16 | 171 | 3.2 | 8.0 | 1.70 | 6.05 | 5.71 | 100 | 1007.3 |
| 20260501190204 | 17 | 178 | 3.2 | 8.0 | 1.78 | 5.99 | 5.66 | 100 | 1006.4 |
| 20260501185704 | 17 | 166 | 4.8 | 8.0 | 2.03 | 5.99 | 5.66 | 100 | 1007.1 |
| 20260501184705 | 17 | 192 | 4.8 | 11.3 | 1.12 | 5.08 | 4.75 | 100 | 1008.4 |
| 20260501184204 | 17 | 213 | 4.8 | 11.3 | 1.14 | 5.08 | 4.75 | 100 | 1009.7 |
| 20260501183703 | 17 | 198 | 3.2 | 8.0 | 0.81 | 4.80 | 4.47 | 100 | 1007.7 |
| 20260501183204 | 17 | 222 | 3.2 | 4.8 | 0.81 | 4.80 | 4.47 | 100 | 1006.3 |